Station Historical Data
Daily Summary for January 4, 2018 Units:  Metric    English   Both
« Previous Day
Next Day »
Daily Weekly Monthly Yearly Custom
  High: Low: Average:
Temperature: -7.7 °C -15.8 °C -10.4 °C
Dew Point: -10.1 °C -18.7 °C -13.6 °C
Humidity: 83% 69% 78%
Wind Speed: 19.3km/h 0km/h 7.9km/h
Wind Gust: 32.2km/h - -
Wind- - WNW
Pressure: 1015.8 hPa 1011.4 hPa -
Precipitation: 0 mm    
Historical Graphs
 
 
Tabular Data for January 4, 2018
Time Temperature Dew Point Pressure Wind Wind Speed Wind Gust Humidity Rainfall Rate (Hourly)
00:09 -7.7 °C -10.1 °C 1015.8 hPa West 3.2 km/h 11.3 km/h 83% 0 mm
00:14 -7.8 °C -10.2 °C 1015.8 hPa WNW 3.2 km/h 8 km/h 83% 0 mm
00:19 -7.8 °C -10.2 °C 1015.8 hPa West 4.8 km/h 8 km/h 83% 0 mm
00:24 -7.9 °C -10.3 °C 1015.5 hPa West 3.2 km/h 8 km/h 83% 0 mm
00:29 -7.9 °C -10.5 °C 1015.8 hPa West 4.8 km/h 9.7 km/h 82% 0 mm
00:34 -7.9 °C -10.5 °C 1015.8 hPa WSW 3.2 km/h 9.7 km/h 82% 0 mm
00:39 -7.9 °C -10.5 °C 1015.8 hPa WSW 3.2 km/h 6.4 km/h 82% 0 mm
00:44 -8 °C -10.6 °C 1015.8 hPa WSW 3.2 km/h 8 km/h 82% 0 mm
00:49 -8.1 °C -10.7 °C 1015.8 hPa WSW 3.2 km/h 8 km/h 81% 0 mm
00:54 -8.1 °C -10.7 °C 1015.8 hPa WSW 3.2 km/h 6.4 km/h 81% 0 mm
01:04 -8.1 °C -10.9 °C 1015.8 hPa WSW 1.6 km/h 6.4 km/h 80% 0 mm
01:09 -8.2 °C -11 °C 1015.8 hPa WSW 3.2 km/h 4.8 km/h 80% 0 mm
01:14 -8.2 °C -11 °C 1015.5 hPa Calm   6.4 km/h 80% 0 mm
01:19 -8.2 °C -11.1 °C 1015.5 hPa WSW 3.2 km/h 4.8 km/h 80% 0 mm
01:24 -8.2 °C -11.2 °C 1015.5 hPa WSW 3.2 km/h 6.4 km/h 79% 0 mm
01:29 -8.2 °C -11.2 °C 1015.5 hPa WSW 3.2 km/h 6.4 km/h 79% 0 mm
01:34 -8.3 °C -11.3 °C 1015.5 hPa WSW 3.2 km/h 6.4 km/h 79% 0 mm
01:39 -8.3 °C -11.3 °C 1015.5 hPa Calm   4.8 km/h 79% 0 mm
01:44 -8.3 °C -11.3 °C 1015.8 hPa SW 1.6 km/h 4.8 km/h 79% 0 mm
01:49 -8.3 °C -11.1 °C 1015.8 hPa SW 1.6 km/h 4.8 km/h 80% 0 mm
01:54 -8.3 °C -11.2 °C 1015.8 hPa SW 4.8 km/h 8 km/h 80% 0 mm
01:59 -8.4 °C -11.2 °C 1015.8 hPa SW 3.2 km/h 8 km/h 80% 0 mm
02:04 -8.4 °C -11.2 °C 1015.5 hPa WSW 6.4 km/h 9.7 km/h 80% 0 mm
02:09 -8.4 °C -11.3 °C 1015.5 hPa WSW 4.8 km/h 9.7 km/h 80% 0 mm
02:14 -8.5 °C -11.5 °C 1015.5 hPa WSW 4.8 km/h 9.7 km/h 79% 0 mm
02:19 -8.5 °C -11.5 °C 1015.5 hPa WSW 4.8 km/h 8 km/h 79% 0 mm
02:24 -8.5 °C -11.7 °C 1015.5 hPa WSW 3.2 km/h 8 km/h 78% 0 mm
02:29 -8.5 °C -11.7 °C 1015.5 hPa WSW 3.2 km/h 8 km/h 78% 0 mm
02:34 -8.5 °C -11.5 °C 1015.5 hPa WSW 3.2 km/h 6.4 km/h 79% 0 mm
02:39 -8.6 °C -11.6 °C 1015.5 hPa WSW 3.2 km/h 6.4 km/h 79% 0 mm
02:44 -8.6 °C -11.7 °C 1015.1 hPa WSW 3.2 km/h 8 km/h 78% 0 mm
02:49 -8.6 °C -11.8 °C 1015.1 hPa WSW 3.2 km/h 8 km/h 78% 0 mm
02:54 -8.6 °C -11.8 °C 1015.1 hPa WSW 3.2 km/h 9.7 km/h 78% 0 mm
02:59 -8.6 °C -11.8 °C 1015.1 hPa West 3.2 km/h 9.7 km/h 78% 0 mm
03:04 -8.6 °C -11.8 °C 1014.8 hPa WSW 3.2 km/h 6.4 km/h 78% 0 mm
03:09 -8.7 °C -11.8 °C 1014.8 hPa SW 3.2 km/h 6.4 km/h 78% 0 mm
03:14 -8.7 °C -11.9 °C 1014.8 hPa WSW 3.2 km/h 9.7 km/h 78% 0 mm
03:19 -8.7 °C -11.9 °C 1014.8 hPa West 3.2 km/h 9.7 km/h 78% 0 mm
03:29 -8.8 °C -12.1 °C 1014.8 hPa West 3.2 km/h 6.4 km/h 77% 0 mm
03:34 -8.8 °C -12.1 °C 1014.8 hPa WSW 1.6 km/h 4.8 km/h 77% 0 mm
03:39 -8.8 °C -12.1 °C 1014.8 hPa WSW 3.2 km/h 6.4 km/h 77% 0 mm
03:49 -8.8 °C -12.1 °C 1015.1 hPa Calm   4.8 km/h 77% 0 mm
03:54 -8.8 °C -12.1 °C 1015.1 hPa Calm   4.8 km/h 77% 0 mm
03:59 -8.8 °C -12.1 °C 1015.1 hPa West 1.6 km/h 9.7 km/h 77% 0 mm
04:04 -8.8 °C -12.1 °C 1014.8 hPa WSW 3.2 km/h 9.7 km/h 77% 0 mm
04:09 -8.9 °C -12.2 °C 1014.8 hPa West 3.2 km/h 6.4 km/h 77% 0 mm
04:14 -8.9 °C -12.1 °C 1014.8 hPa West 1.6 km/h 9.7 km/h 78% 0 mm
04:19 -9 °C -12.1 °C 1014.8 hPa West 3.2 km/h 9.7 km/h 78% 0 mm
04:24 -9 °C -12.1 °C 1014.8 hPa WNW 4.8 km/h 11.3 km/h 78% 0 mm
04:29 -9 °C -12 °C 1014.8 hPa WNW 4.8 km/h 11.3 km/h 79% 0 mm
04:34 -9.1 °C -12.1 °C 1014.4 hPa West 3.2 km/h 9.7 km/h 79% 0 mm
04:39 -9.1 °C -11.9 °C 1014.4 hPa West 3.2 km/h 8 km/h 80% 0 mm
04:44 -9.1 °C -11.9 °C 1014.4 hPa West 3.2 km/h 8 km/h 80% 0 mm
04:49 -9.2 °C -12 °C 1014.4 hPa West 1.6 km/h 4.8 km/h 80% 0 mm
04:54 -9.2 °C -12 °C 1014.1 hPa WSW 3.2 km/h 6.4 km/h 80% 0 mm
04:59 -9.2 °C -12 °C 1014.1 hPa West 1.6 km/h 6.4 km/h 80% 0 mm
05:04 -9.2 °C -12 °C 1014.1 hPa West 3.2 km/h 6.4 km/h 80% 0 mm
05:09 -9.2 °C -11.8 °C 1014.1 hPa WNW 1.6 km/h 8 km/h 81% 0 mm
05:14 -9.2 °C -11.8 °C 1014.1 hPa NW 1.6 km/h 8 km/h 81% 0 mm
05:19 -9.2 °C -11.8 °C 1014.1 hPa NW 1.6 km/h 4.8 km/h 81% 0 mm
05:29 -9.1 °C -11.8 °C 1014.1 hPa West 1.6 km/h 4.8 km/h 81% 0 mm
05:34 -9.2 °C -11.8 °C 1014.1 hPa Calm   3.2 km/h 81% 0 mm
05:39 -9.2 °C -11.8 °C 1014.1 hPa West 1.6 km/h 6.4 km/h 81% 0 mm
05:59 -9.2 °C -11.8 °C 1013.8 hPa West 1.6 km/h 4.8 km/h 81% 0 mm
06:04 -9.2 °C -11.8 °C 1013.8 hPa WNW 1.6 km/h 9.7 km/h 81% 0 mm
06:09 -9.2 °C -11.8 °C 1014.1 hPa West 3.2 km/h 6.4 km/h 81% 0 mm
06:14 -9.2 °C -11.8 °C 1014.1 hPa West 3.2 km/h 6.4 km/h 81% 0 mm
06:19 -9.2 °C -11.8 °C 1013.8 hPa West 3.2 km/h 9.7 km/h 81% 0 mm
06:24 -9.2 °C -11.8 °C 1013.8 hPa West 3.2 km/h 9.7 km/h 81% 0 mm
06:29 -9.2 °C -11.8 °C 1014.1 hPa West 3.2 km/h 8 km/h 81% 0 mm
06:34 -9.2 °C -11.8 °C 1014.1 hPa West 1.6 km/h 6.4 km/h 81% 0 mm
06:39 -9.2 °C -11.8 °C 1014.1 hPa West 3.2 km/h 6.4 km/h 81% 0 mm
06:44 -9.2 °C -11.8 °C 1014.1 hPa WNW 3.2 km/h 11.3 km/h 81% 0 mm
06:49 -9.1 °C -11.8 °C 1014.1 hPa WNW 4.8 km/h 11.3 km/h 81% 0 mm
06:54 -9.1 °C -11.9 °C 1014.1 hPa WNW 3.2 km/h 11.3 km/h 80% 0 mm
06:59 -9.2 °C -12 °C 1014.1 hPa West 3.2 km/h 12.9 km/h 80% 0 mm
07:04 -9.2 °C -12 °C 1013.8 hPa WNW 4.8 km/h 12.9 km/h 80% 0 mm
07:09 -9.2 °C -12.1 °C 1014.1 hPa WNW 4.8 km/h 9.7 km/h 80% 0 mm
07:14 -9.3 °C -12.1 °C 1014.1 hPa WNW 3.2 km/h 8 km/h 80% 0 mm
07:24 -9.4 °C -12.2 °C 1013.8 hPa WNW 4.8 km/h 11.3 km/h 80% 0 mm
07:29 -9.5 °C -12.3 °C 1013.8 hPa WNW 6.4 km/h 11.3 km/h 80% 0 mm
07:34 -9.6 °C -12.2 °C 1013.8 hPa WNW 6.4 km/h 14.5 km/h 81% 0 mm
07:39 -9.7 °C -12.5 °C 1013.8 hPa WNW 3.2 km/h 14.5 km/h 80% 0 mm
07:44 -9.8 °C -12.5 °C 1013.8 hPa WNW 6.4 km/h 14.5 km/h 81% 0 mm
07:49 -9.9 °C -12.6 °C 1013.4 hPa NW 6.4 km/h 12.9 km/h 81% 0 mm
07:54 -9.9 °C -12.6 °C 1013.4 hPa WNW 8 km/h 12.9 km/h 81% 0 mm
08:04 -10 °C -12.5 °C 1013.1 hPa WNW 6.4 km/h 14.5 km/h 82% 0 mm
08:09 -10 °C -12.5 °C 1013.1 hPa NW 6.4 km/h 11.3 km/h 82% 0 mm
08:14 -10 °C -12.5 °C 1013.1 hPa WNW 6.4 km/h 11.3 km/h 82% 0 mm
08:19 -10 °C -12.5 °C 1012.8 hPa NW 6.4 km/h 12.9 km/h 82% 0 mm
08:24 -10 °C -12.5 °C 1012.8 hPa WNW 6.4 km/h 12.9 km/h 82% 0 mm
08:29 -9.9 °C -12.4 °C 1012.8 hPa NW 6.4 km/h 14.5 km/h 82% 0 mm
08:34 -9.8 °C -12.3 °C 1012.8 hPa NW 4.8 km/h 14.5 km/h 82% 0 mm
08:39 -9.7 °C -12.2 °C 1012.8 hPa NW 12.9 km/h 14.5 km/h 82% 0 mm
08:44 -9.7 °C -12.2 °C 1012.8 hPa NW 8 km/h 17.7 km/h 82% 0 mm
08:49 -9.7 °C -12.4 °C 1012.4 hPa NW 3.2 km/h 11.3 km/h 81% 0 mm
08:54 -9.7 °C -12.4 °C 1012.4 hPa WNW 6.4 km/h 14.5 km/h 81% 0 mm
08:59 -9.7 °C -12.5 °C 1012.4 hPa WNW 8 km/h 14.5 km/h 80% 0 mm
09:04 -9.6 °C -12.4 °C 1012.1 hPa NW 8 km/h 17.7 km/h 80% 0 mm
09:09 -9.6 °C -12.5 °C 1012.1 hPa NW 6.4 km/h 12.9 km/h 79% 0 mm
09:14 -9.3 °C -12.3 °C 1012.1 hPa NW 6.4 km/h 14.5 km/h 79% 0 mm
09:19 -9.1 °C -12.3 °C 1012.1 hPa NW 6.4 km/h 22.5 km/h 77% 0 mm
09:24 -8.8 °C -12.2 °C 1012.1 hPa NNW 8 km/h 20.9 km/h 76% 0 mm
09:29 -8.6 °C -12.4 °C 1012.1 hPa WNW 8 km/h 19.3 km/h 74% 0 mm
09:34 -8.5 °C -12.5 °C 1012.1 hPa NW 8 km/h 24.1 km/h 73% 0 mm
09:39 -8.4 °C -12.7 °C 1012.4 hPa North 6.4 km/h 22.5 km/h 71% 0 mm
09:44 -8.3 °C -12.8 °C 1012.4 hPa NNW 9.7 km/h 24.1 km/h 70% 0 mm
09:49 -8.3 °C -13 °C 1012.4 hPa NNW 11.3 km/h 24.1 km/h 69% 0 mm
09:54 -8.3 °C -12.9 °C 1012.8 hPa NW 9.7 km/h 24.1 km/h 69% 0 mm
09:59 -8.3 °C -12.9 °C 1012.8 hPa NW 11.3 km/h 22.5 km/h 69% 0 mm
10:04 -8.3 °C -12.9 °C 1012.8 hPa WNW 14.5 km/h 24.1 km/h 69% 0 mm
10:09 -8.2 °C -12.9 °C 1012.8 hPa NW 11.3 km/h 24.1 km/h 69% 0 mm
10:14 -8.1 °C -12.6 °C 1012.8 hPa NNW 11.3 km/h 22.5 km/h 70% 0 mm
10:19 -8 °C -12.5 °C 1012.8 hPa NW 9.7 km/h 14.5 km/h 70% 0 mm
10:24 -8.1 °C -12.6 °C 1013.1 hPa NW 8 km/h 19.3 km/h 70% 0 mm
10:30 -8.1 °C -12.7 °C 1013.1 hPa NW 9.7 km/h 20.9 km/h 69% 0 mm
10:39 -8.3 °C -12.8 °C 1013.1 hPa NW 11.3 km/h 17.7 km/h 70% 0 mm
10:44 -7.8 °C -12.3 °C 1013.1 hPa North 8 km/h 20.9 km/h 70% 0 mm
10:49 -7.9 °C -12.4 °C 1013.4 hPa NW 9.7 km/h 22.5 km/h 70% 0 mm
10:54 -8.2 °C -12.5 °C 1013.4 hPa NW 9.7 km/h 22.5 km/h 71% 0 mm
10:59 -8.3 °C -12.4 °C 1013.1 hPa NNW 4.8 km/h 20.9 km/h 72% 0 mm
11:04 -8.1 °C -12.2 °C 1013.1 hPa NW 4.8 km/h 14.5 km/h 72% 0 mm
11:14 -7.8 °C -11.8 °C 1013.1 hPa NW 8 km/h 16.1 km/h 73% 0 mm
11:19 -7.8 °C -11.9 °C 1013.1 hPa North 6.4 km/h 17.7 km/h 72% 0 mm
11:24 -8.1 °C -11.9 °C 1013.1 hPa NNW 6.4 km/h 17.7 km/h 74% 0 mm
11:39 -8.2 °C -12 °C 1012.8 hPa NW 8 km/h 16.1 km/h 74% 0 mm
11:40 -8.2 °C -12 °C 1012.8 hPa NW 8 km/h 16.1 km/h 74% 0 mm
11:49 -8.6 °C -12.2 °C 1012.8 hPa NNW 8 km/h 20.9 km/h 75% 0 mm
11:54 -8.7 °C -12.3 °C 1012.8 hPa WNW 4.8 km/h 14.5 km/h 75% 0 mm
11:59 -8.3 °C -11.8 °C 1012.8 hPa NW 9.7 km/h 12.9 km/h 76% 0 mm
12:04 -8 °C -12 °C 1012.4 hPa NW 19.3 km/h 19.3 km/h 73% 0 mm
12:09 -8.5 °C -12.8 °C 1012.8 hPa North 9.7 km/h 19.3 km/h 71% 0 mm
12:14 -8.7 °C -13.2 °C 1012.8 hPa NNW 9.7 km/h 19.3 km/h 70% 0 mm
12:19 -8.7 °C -13.1 °C 1012.4 hPa NW 11.3 km/h 11.3 km/h 71% 0 mm
12:24 -8.9 °C -13.2 °C 1012.4 hPa NW 6.4 km/h 16.1 km/h 71% 0 mm
12:29 -8.9 °C -13.2 °C 1012.4 hPa NW 8 km/h 16.1 km/h 71% 0 mm
12:34 -8.9 °C -13.2 °C 1012.1 hPa NW 9.7 km/h 16.1 km/h 71% 0 mm
12:39 -8.9 °C -13.1 °C 1012.1 hPa West 9.7 km/h 14.5 km/h 72% 0 mm
12:44 -8.9 °C -12.9 °C 1012.1 hPa North 6.4 km/h 17.7 km/h 73% 0 mm
12:49 -8.9 °C -13.1 °C 1012.1 hPa WNW 9.7 km/h 22.5 km/h 72% 0 mm
12:54 -8.8 °C -12.8 °C 1012.1 hPa WNW 9.7 km/h 22.5 km/h 73% 0 mm
13:04 -8.9 °C -12.9 °C 1011.7 hPa WNW 8 km/h 17.7 km/h 73% 0 mm
13:09 -9.2 °C -13.1 °C 1011.7 hPa WNW 9.7 km/h 22.5 km/h 73% 0 mm
13:14 -9.3 °C -13.1 °C 1011.7 hPa WNW 11.3 km/h 22.5 km/h 74% 0 mm
13:19 -9.3 °C -12.9 °C 1011.4 hPa WNW 9.7 km/h 22.5 km/h 75% 0 mm
13:24 -9.2 °C -12.8 °C 1011.4 hPa WNW 8 km/h 17.7 km/h 75% 0 mm
13:29 -9.3 °C -12.9 °C 1011.4 hPa West 16.1 km/h 17.7 km/h 75% 0 mm
13:34 -9.3 °C -12.9 °C 1011.4 hPa NW 9.7 km/h 24.1 km/h 75% 0 mm
13:39 -9 °C -12.9 °C 1011.4 hPa WNW 12.9 km/h 24.1 km/h 73% 0 mm
13:44 -8.9 °C -13 °C 1011.4 hPa WNW 12.9 km/h 25.7 km/h 72% 0 mm
13:49 -9 °C -13.3 °C 1011.4 hPa WNW 14.5 km/h 25.7 km/h 71% 0 mm
13:54 -9.4 °C -13.3 °C 1011.4 hPa WNW 14.5 km/h 25.7 km/h 73% 0 mm
13:59 -9.4 °C -13.2 °C 1011.4 hPa WNW 11.3 km/h 22.5 km/h 74% 0 mm
14:04 -9.5 °C -13.1 °C 1011.4 hPa WNW 11.3 km/h 19.3 km/h 75% 0 mm
14:09 -9.7 °C -13.3 °C 1011.7 hPa NW 8 km/h 22.5 km/h 75% 0 mm
14:14 -9.8 °C -13.4 °C 1011.7 hPa NW 9.7 km/h 22.5 km/h 75% 0 mm
14:19 -9.8 °C -13.4 °C 1011.7 hPa NW 9.7 km/h 17.7 km/h 75% 0 mm
14:24 -9.9 °C -13.5 °C 1011.7 hPa NW 9.7 km/h 19.3 km/h 75% 0 mm
14:29 -10.2 °C -14 °C 1011.7 hPa NNW 11.3 km/h 19.3 km/h 74% 0 mm
14:34 -10.3 °C -14.1 °C 1011.7 hPa NW 9.7 km/h 19.3 km/h 74% 0 mm
14:39 -10.3 °C -13.9 °C 1011.7 hPa West 12.9 km/h 20.9 km/h 75% 0 mm
14:44 -10.4 °C -13.9 °C 1011.7 hPa NW 9.7 km/h 20.9 km/h 75% 0 mm
14:49 -10.4 °C -13.9 °C 1011.7 hPa WNW 9.7 km/h 20.9 km/h 75% 0 mm
14:54 -10.4 °C -13.8 °C 1011.7 hPa WNW 9.7 km/h 20.9 km/h 76% 0 mm
14:59 -10.4 °C -13.7 °C 1011.7 hPa WNW 11.3 km/h 19.3 km/h 77% 0 mm
15:04 -10.4 °C -13.5 °C 1011.7 hPa WNW 17.7 km/h 24.1 km/h 78% 0 mm
15:09 -10.5 °C -13.4 °C 1011.7 hPa WNW 11.3 km/h 24.1 km/h 79% 0 mm
15:14 -10.6 °C -13.3 °C 1011.7 hPa WNW 11.3 km/h 20.9 km/h 80% 0 mm
15:19 -10.5 °C -13.1 °C 1011.7 hPa WNW 11.3 km/h 17.7 km/h 81% 0 mm
15:20 -10.5 °C -13.1 °C 1011.7 hPa WNW 8 km/h 17.7 km/h 81% 0 mm
15:29 -10.8 °C -13.6 °C 1011.7 hPa NW 9.7 km/h 24.1 km/h 80% 0 mm
15:34 -10.9 °C -13.5 °C 1011.7 hPa NW 9.7 km/h 24.1 km/h 81% 0 mm
15:39 -11 °C -13.8 °C 1011.7 hPa West 8 km/h 17.7 km/h 80% 0 mm
15:49 -10.9 °C -13.7 °C 1011.7 hPa WNW 6.4 km/h 11.3 km/h 80% 0 mm
15:54 -10.9 °C -13.7 °C 1011.7 hPa WNW 6.4 km/h 19.3 km/h 80% 0 mm
16:10 -10.9 °C -13.5 °C 1011.7 hPa WNW 8 km/h 19.3 km/h 81% 0 mm
16:44 -11.6 °C -14.4 °C 1012.1 hPa WSW 14.5 km/h 20.9 km/h 79% 0 mm
16:49 -11.7 °C -14.8 °C 1012.4 hPa WNW 11.3 km/h 25.7 km/h 78% 0 mm
16:59 -12 °C -15.2 °C 1012.4 hPa WNW 11.3 km/h 22.5 km/h 77% 0 mm
17:09 -12.1 °C -15.4 °C 1012.4 hPa WNW 11.3 km/h 22.5 km/h 76% 0 mm
17:14 -12.1 °C -15.5 °C 1012.4 hPa WNW 11.3 km/h 22.5 km/h 76% 0 mm
17:24 -12.2 °C -15.7 °C 1012.4 hPa WNW 11.3 km/h 22.5 km/h 75% 0 mm
17:29 -12.3 °C -15.8 °C 1012.4 hPa WNW 9.7 km/h 22.5 km/h 75% 0 mm
17:39 -12.3 °C -15.8 °C 1012.4 hPa West 12.9 km/h 24.1 km/h 75% 0 mm
17:44 -12.3 °C -15.8 °C 1012.4 hPa West 12.9 km/h 24.1 km/h 75% 0 mm
17:49 -12.3 °C -15.8 °C 1012.4 hPa WNW 14.5 km/h 24.1 km/h 75% 0 mm
17:54 -12.4 °C -15.9 °C 1012.4 hPa WSW 12.9 km/h 25.7 km/h 75% 0 mm
17:59 -12.5 °C -16 °C 1012.8 hPa WNW 14.5 km/h 25.7 km/h 75% 0 mm
18:04 -12.5 °C -16 °C 1012.8 hPa WNW 19.3 km/h 29 km/h 75% 0 mm
18:09 -12.6 °C -16.2 °C 1012.8 hPa NNW 9.7 km/h 20.9 km/h 74% 0 mm
18:14 -12.6 °C -16.3 °C 1012.8 hPa WNW 12.9 km/h 24.1 km/h 74% 0 mm
18:19 -12.7 °C -16.2 °C 1012.8 hPa NW 14.5 km/h 24.1 km/h 75% 0 mm
18:24 -12.7 °C -16.2 °C 1012.8 hPa WNW 9.7 km/h 25.7 km/h 75% 0 mm
18:29 -12.7 °C -16.2 °C 1012.8 hPa WNW 12.9 km/h 25.7 km/h 75% 0 mm
18:34 -12.8 °C -16.3 °C 1012.8 hPa WNW 16.1 km/h 22.5 km/h 75% 0 mm
18:39 -12.8 °C -16.3 °C 1012.8 hPa WNW 16.1 km/h 24.1 km/h 75% 0 mm
18:44 -12.9 °C -16.4 °C 1012.8 hPa NW 16.1 km/h 29 km/h 75% 0 mm
18:49 -13 °C -16.5 °C 1012.8 hPa West 12.9 km/h 32.2 km/h 75% 0 mm
18:54 -13.1 °C -16.6 °C 1012.8 hPa West 12.9 km/h 32.2 km/h 75% 0 mm
18:59 -13.2 °C -16.7 °C 1012.8 hPa WNW 14.5 km/h 25.7 km/h 75% 0 mm
19:04 -13.3 °C -16.6 °C 1012.8 hPa WNW 14.5 km/h 25.7 km/h 76% 0 mm
19:09 -13.3 °C -16.4 °C 1012.8 hPa WNW 12.9 km/h 24.1 km/h 77% 0 mm
19:19 -13.4 °C -16.4 °C 1013.1 hPa WNW 11.3 km/h 24.1 km/h 78% 0 mm
19:24 -13.5 °C -16.5 °C 1013.1 hPa WNW 9.7 km/h 24.1 km/h 78% 0 mm
19:29 -13.6 °C -16.6 °C 1013.1 hPa WNW 12.9 km/h 24.1 km/h 78% 0 mm
19:34 -13.6 °C -16.5 °C 1013.1 hPa WNW 12.9 km/h 22.5 km/h 79% 0 mm
19:39 -13.6 °C -16.4 °C 1013.1 hPa NW 9.7 km/h 20.9 km/h 79% 0 mm
19:44 -13.5 °C -16.4 °C 1013.1 hPa West 9.7 km/h 16.1 km/h 79% 0 mm
19:49 -13.5 °C -16.2 °C 1013.1 hPa WNW 8 km/h 19.3 km/h 80% 0 mm
19:54 -13.5 °C -16.2 °C 1013.1 hPa WNW 11.3 km/h 19.3 km/h 80% 0 mm
20:04 -13.5 °C -16.1 °C 1013.1 hPa WNW 9.7 km/h 25.7 km/h 81% 0 mm
20:09 -13.4 °C -16 °C 1013.1 hPa WNW 8 km/h 20.9 km/h 81% 0 mm
20:14 -13.4 °C -16 °C 1013.1 hPa WNW 8 km/h 20.9 km/h 81% 0 mm
20:19 -13.4 °C -16 °C 1013.1 hPa WNW 8 km/h 19.3 km/h 81% 0 mm
20:24 -13.4 °C -16 °C 1013.1 hPa WNW 11.3 km/h 20.9 km/h 81% 0 mm
20:34 -13.5 °C -16.1 °C 1013.1 hPa WNW 11.3 km/h 20.9 km/h 81% 0 mm
20:44 -13.4 °C -16 °C 1013.1 hPa WNW 8 km/h 19.3 km/h 81% 0 mm
20:49 -13.4 °C -15.9 °C 1013.4 hPa NW 3.2 km/h 12.9 km/h 82% 0 mm
20:59 -13.5 °C -16.1 °C 1013.4 hPa North 9.7 km/h 19.3 km/h 81% 0 mm
21:04 -13.8 °C -16.4 °C 1013.4 hPa NW 6.4 km/h 22.5 km/h 81% 0 mm
21:09 -14.1 °C -16.6 °C 1013.4 hPa NNW 9.7 km/h 22.5 km/h 81% 0 mm
21:19 -14.3 °C -16.8 °C 1013.4 hPa NW 9.7 km/h 25.7 km/h 81% 0 mm
21:24 -14.3 °C -16.9 °C 1013.4 hPa NW 9.7 km/h 24.1 km/h 81% 0 mm
21:29 -14.4 °C -16.9 °C 1013.4 hPa NW 8 km/h 17.7 km/h 81% 0 mm
21:34 -14.3 °C -16.9 °C 1013.8 hPa NW 6.4 km/h 20.9 km/h 81% 0 mm
21:44 -14.4 °C -17 °C 1013.8 hPa NNW 8 km/h 19.3 km/h 81% 0 mm
21:54 -14.6 °C -17.1 °C 1013.8 hPa NNW 11.3 km/h 22.5 km/h 81% 0 mm
21:59 -14.6 °C -17.1 °C 1013.8 hPa WNW 16.1 km/h 24.1 km/h 81% 0 mm
22:04 -14.6 °C -17.2 °C 1013.8 hPa NW 6.4 km/h 25.7 km/h 81% 0 mm
22:09 -14.7 °C -17.2 °C 1013.8 hPa NW 12.9 km/h 25.7 km/h 81% 0 mm
22:19 -14.9 °C -17.4 °C 1013.8 hPa North 9.7 km/h 27.4 km/h 81% 0 mm
22:24 -14.9 °C -17.5 °C 1014.1 hPa NW 12.9 km/h 27.4 km/h 81% 0 mm
22:29 -15 °C -17.6 °C 1014.1 hPa NW 12.9 km/h 22.5 km/h 81% 0 mm
22:34 -15.1 °C -17.7 °C 1014.1 hPa NW 11.3 km/h 29 km/h 81% 0 mm
22:39 -15.2 °C -17.7 °C 1014.1 hPa NW 11.3 km/h 29 km/h 81% 0 mm
22:44 -15.3 °C -17.8 °C 1013.8 hPa NW 12.9 km/h 27.4 km/h 81% 0 mm
22:59 -15.6 °C -18.2 °C 1013.8 hPa NW 11.3 km/h 29 km/h 80% 0 mm
23:04 -15.6 °C -18.2 °C 1013.8 hPa NW 14.5 km/h 25.7 km/h 80% 0 mm
23:09 -15.6 °C -18.3 °C 1014.1 hPa NW 12.9 km/h 29 km/h 80% 0 mm
23:14 -15.6 °C -18.3 °C 1014.1 hPa NW 11.3 km/h 30.6 km/h 80% 0 mm
23:19 -15.6 °C -18.3 °C 1014.1 hPa WNW 16.1 km/h 30.6 km/h 80% 0 mm
23:24 -15.6 °C -18.3 °C 1014.1 hPa North 8 km/h 27.4 km/h 80% 0 mm
23:29 -15.6 °C -18.3 °C 1014.1 hPa West 17.7 km/h 25.7 km/h 80% 0 mm
23:34 -15.7 °C -18.3 °C 1014.1 hPa NW 14.5 km/h 24.1 km/h 80% 0 mm
23:39 -15.7 °C -18.4 °C 1014.1 hPa NW 14.5 km/h 29 km/h 80% 0 mm
23:44 -15.7 °C -18.6 °C 1013.8 hPa WNW 12.9 km/h 29 km/h 79% 0 mm
23:49 -15.8 °C -18.7 °C 1013.8 hPa NW 12.9 km/h 27.4 km/h 79% 0 mm
23:54 -15.8 °C -18.7 °C 1013.8 hPa NW 12.9 km/h 24.1 km/h 79% 0 mm
Buffalo, New York, USA
Compliments of Weather Underground - 2.25 mb